Retour au catalogue

DELTA 1 R/B

ActifSSO
NORAD 2096·ROCKET BODY·🇺🇸 United States

Lancé Feb 28, 1966 depuis Cape Canaveral Space Force Station

Loading…

Prochains Passages (prochaines 24 heures)

TLE

FraisSource: Space-Track

Époque: Sep 14, 2026, 12:27 UTC

1 02096U 66016B   26257.51941238 -.00000046  00000-0 -22166-4 0  9994
2 02096 100.8743  90.2556 0039819 338.2878  46.4408 12.70001522805412

Suivez DELTA 1 R/B en temps réel avec AllMySat

Download on the App Store